Location: Ferchesar
(52.6477°N, 12.4298°E)
Time: 22:41:29
(UTC+01:00)

TIGRISAT - Pass Details

Date: 23 October 2021
Orbit: 603 x 689 km, 97.7° (Epoch: 30 November)

Event Time Altitude Azimuth Distance (km) Brightness Sun altitude
Rises 06:06:15 0° 132° (SE) 3,053 ? -16.4°
Reaches altitude 10° 06:08:44 10° 121° (ESE) 2,138 ? -16.0°
Maximum altitude 06:12:44 29° 63° (ENE) 1,263 ? -15.4°
Drops below altitude 10° 06:16:42 10° 4° (N) 2,126 ? -14.8°
Sets 06:19:09 0° 353° (N) 3,033 ? -14.5°
